Content
SEND FEEDBACK

Daily
Averages
Monthly
Summary
United States of America

RAYMOND, MISSISSIPPI


Home > North America > United States > Mississippi
Elevation: 222 feet     Latitude: 32 12N     Longitude: 090 31W

WEATHER
 
SELECT A DAY
Number of Records: 149,142;   Date Range: 7/20/00 - 9/29/14
 
SHARE

PRINT THIS DATA

[ ← Previous Day ]
WEATHER ALMANAC - JANUARY 23, 2013
[ Next Day → ]
[ °C ]   °F
Weather ElementAverageHighLow
Temperature55.5 °F70 °F (3:53 pm)42.1 °F (2:53 am)
Dewpoint40.5 °F46.9 °F (11:53 pm)34 °F (3:53 am)
Humidity59.7 %80 % (7:53 am)33 % (3:53 pm)
Barometer30.29 in30.36 in (8:53 am)30.23 in (3:53 pm)
Wind Speed4.5 mph10.4 mph (1:53 pm)
Weather ElementAverage
Visibility10 mi
Wind DirectionSSE (158.1 °)

Weather ElementTotal
Precipitation---
Heating Degree Days9 (Base 65)
Growing Degree Days6.1 (Base 50)
Averaged from 21 records on January 23, 2013
WEATHER CONDITIONS BREAKOUT
WIND DIRECTION BREAKOUT
WEATHER BY HOUR - JANUARY 23, 2013
[ °C ]   °F
Local TimeTemperatureDewpointHumidityBarometerVisibilityWind DirectionWind SpeedGust SpeedPrecipitationEventsConditions
2:53 AM42.1 °F35.1 °F76 %30.30 in10.0 miSE (140°)3.5 mphOvercast
3:53 AM43.0 °F34.0 °F71 %30.30 in10.0 miCalmOvercast
4:53 AM43.0 °F35.1 °F74 %30.31 in10.0 miSSE (160°)3.5 mphOvercast
5:53 AM43.0 °F36.0 °F76 %30.32 in10.0 miSSE (150°)3.5 mphOvercast
6:53 AM44.1 °F37.9 °F79 %30.34 in10.0 miCalmOvercast
7:53 AM45.0 °F39.0 °F80 %30.34 in10.0 miCalmOvercast
8:53 AM46.9 °F41.0 °F80 %30.36 in10.0 miCalmOvercast
9:53 AM52.0 °F43.0 °F71 %30.36 in10.0 miSSW (210°)4.6 mphOvercast
10:53 AM60.1 °F44.1 °F55 %30.36 in10.0 miWest (260°)6.9 mphOvercast
11:53 AM63.0 °F42.1 °F46 %30.33 in10.0 miWest (280°)8.1 mphOvercast
12:53 PM64.9 °F42.1 °F43 %30.28 in10.0 miWSW (250°)5.8 mphClear
1:53 PM69.1 °F41.0 °F36 %30.26 in10.0 miWSW (250°)10.4 mphClear
2:53 PM68.0 °F42.1 °F39 %30.25 in10.0 miWSW (240°)8.1 mphClear
3:53 PM70.0 °F39.9 °F33 %30.23 in10.0 miWSW (240°)10.4 mphClear
4:53 PM66.0 °F39.9 °F38 %30.23 in10.0 miWSW (250°)5.8 mphMostly Cloudy
5:53 PM63.0 °F41.0 °F45 %30.24 in10.0 miCalmMostly Cloudy
6:53 PM59.0 °F41.0 °F51 %30.23 in10.0 miSW (230°)3.5 mphScattered Clouds
7:53 PM55.0 °F42.1 °F62 %30.24 in10.0 miCalmClear
9:53 PM55.9 °F42.1 °F60 %30.24 in10.0 miSW (220°)5.8 mphClear
10:53 PM57.0 °F46.0 °F67 %30.25 in10.0 miSW (220°)6.9 mphClear
11:53 PM55.9 °F46.9 °F72 %30.25 in10.0 miSW (220°)8.1 mphClear
Hourly data recorded from KHKS, located miles away from Raymond, Mississippi







STORIES FROM OUR PARTNERS